Year,Month,Day,Hour,Minute,Value (Times are PST for temperature in C)
2012,08,11,07,14,11.90
2012,08,11,07,15,12.00
2012,08,11,07,16,12.00
2012,08,11,07,17,12.10
2012,08,11,07,18,12.20
2012,08,11,07,19,12.20
2012,08,11,07,20,12.30
2012,08,11,07,21,12.30
2012,08,11,07,22,12.40
2012,08,11,07,23,12.40
2012,08,11,07,24,12.40
2012,08,11,07,25,12.50
2012,08,11,07,26,12.50
2012,08,11,07,27,12.60
2012,08,11,07,28,12.60
2012,08,11,07,29,12.70
2012,08,11,07,30,12.70
2012,08,11,07,31,12.80
2012,08,11,07,32,12.90
2012,08,11,07,33,12.90
2012,08,11,07,34,13.00
2012,08,11,07,35,13.10
2012,08,11,07,36,13.10
2012,08,11,07,37,13.20
2012,08,11,07,38,13.20
2012,08,11,07,39,13.30
2012,08,11,07,40,13.30
2012,08,11,07,41,13.30
2012,08,11,07,42,13.40
2012,08,11,07,43,13.40
2012,08,11,07,44,13.50
2012,08,11,07,45,13.60
2012,08,11,07,46,13.60
2012,08,11,07,47,13.70
2012,08,11,07,48,13.80
2012,08,11,07,49,13.80
2012,08,11,07,50,13.90
2012,08,11,07,51,13.90
2012,08,11,07,52,13.90
2012,08,11,07,53,14.00
2012,08,11,07,54,14.00
2012,08,11,07,55,14.00
2012,08,11,07,56,14.00
2012,08,11,07,57,14.10
2012,08,11,07,58,14.10
2012,08,11,07,59,14.10
2012,08,11,08,00,14.10
2012,08,11,08,01,14.20
2012,08,11,08,02,14.20
2012,08,11,08,03,14.30
2012,08,11,08,04,14.30
2012,08,11,08,05,14.30
2012,08,11,08,06,14.40
2012,08,11,08,07,14.40
2012,08,11,08,08,14.40
2012,08,11,08,09,14.50
2012,08,11,08,10,14.60
2012,08,11,08,11,14.70
2012,08,11,08,12,14.80
2012,08,11,08,13,14.90
2012,08,11,08,14,15.00
2012,08,11,08,15,15.10
2012,08,11,08,16,15.10
2012,08,11,08,17,15.20
2012,08,11,08,18,15.30
2012,08,11,08,19,15.30
2012,08,11,08,20,15.40
2012,08,11,08,21,15.50
2012,08,11,08,22,15.60
2012,08,11,08,23,15.60
2012,08,11,08,24,15.70
2012,08,11,08,25,15.80
2012,08,11,08,26,15.90
2012,08,11,08,27,16.00
2012,08,11,08,28,16.00
2012,08,11,08,29,16.10
2012,08,11,08,30,16.10
2012,08,11,08,31,16.20
2012,08,11,08,32,16.20
2012,08,11,08,33,16.20
2012,08,11,08,34,16.30
2012,08,11,08,35,16.30
2012,08,11,08,36,16.30
2012,08,11,08,37,16.30
2012,08,11,08,38,16.40
2012,08,11,08,39,16.40
2012,08,11,08,40,16.40
2012,08,11,08,41,16.50
2012,08,11,08,42,16.60
2012,08,11,08,43,16.70
2012,08,11,08,44,16.80
2012,08,11,08,45,16.80
2012,08,11,08,46,16.90
2012,08,11,08,47,17.00
2012,08,11,08,48,17.00
2012,08,11,08,49,17.10
2012,08,11,08,50,17.10
2012,08,11,08,51,17.20
2012,08,11,08,52,17.20
2012,08,11,08,53,17.30
2012,08,11,08,54,17.40
2012,08,11,08,55,17.40
2012,08,11,08,56,17.40
2012,08,11,08,57,17.50
2012,08,11,08,58,17.60
2012,08,11,08,59,17.60
2012,08,11,09,00,17.70
2012,08,11,09,01,17.80
2012,08,11,09,02,17.80
2012,08,11,09,03,17.90
2012,08,11,09,04,18.00
2012,08,11,09,05,18.10
2012,08,11,09,06,18.20
2012,08,11,09,07,18.20
2012,08,11,09,08,18.30
2012,08,11,09,09,18.30
2012,08,11,09,10,18.40
2012,08,11,09,11,18.50
2012,08,11,09,12,18.60
2012,08,11,09,13,18.70
2012,08,11,09,14,18.70
2012,08,11,09,15,18.80
2012,08,11,09,16,18.90
2012,08,11,09,17,19.10
2012,08,11,09,18,19.20
2012,08,11,09,19,19.30
2012,08,11,09,20,19.40
2012,08,11,09,21,19.60
2012,08,11,09,22,19.70
2012,08,11,09,23,19.90
2012,08,11,09,24,20.10
2012,08,11,09,25,20.20
2012,08,11,09,26,20.30
2012,08,11,09,27,20.40
2012,08,11,09,28,20.60
2012,08,11,09,29,20.60
2012,08,11,09,30,20.60
2012,08,11,09,31,20.60
2012,08,11,09,32,20.60
2012,08,11,09,33,20.60
2012,08,11,09,34,20.60
2012,08,11,09,35,20.50
2012,08,11,09,36,20.40
2012,08,11,09,37,20.20
2012,08,11,09,38,20.10
2012,08,11,09,39,19.90
2012,08,11,09,40,19.80
2012,08,11,09,41,19.70
2012,08,11,09,42,19.70
2012,08,11,09,43,19.60
2012,08,11,09,44,19.60
2012,08,11,09,45,19.50
2012,08,11,09,46,19.50
2012,08,11,09,47,19.40
2012,08,11,09,48,19.40
2012,08,11,09,49,19.30
2012,08,11,09,50,19.30
2012,08,11,09,51,19.20
2012,08,11,09,52,19.20
2012,08,11,09,53,19.20
2012,08,11,09,54,19.20
2012,08,11,09,55,19.20
2012,08,11,09,56,19.20
2012,08,11,09,57,19.20
2012,08,11,09,58,19.20
2012,08,11,09,59,19.20
2012,08,11,10,00,19.20
2012,08,11,10,01,19.20
2012,08,11,10,02,19.20
2012,08,11,10,03,19.20
2012,08,11,10,04,19.20
2012,08,11,10,05,19.30
2012,08,11,10,06,19.30
2012,08,11,10,07,19.30
2012,08,11,10,08,19.40
2012,08,11,10,09,19.40
2012,08,11,10,10,19.50
2012,08,11,10,11,19.70
2012,08,11,10,12,19.80
2012,08,11,10,13,19.90
2012,08,11,10,14,20.00
2012,08,11,10,15,20.20
2012,08,11,10,16,20.30
2012,08,11,10,17,20.50
2012,08,11,10,18,20.70
2012,08,11,10,19,20.80
2012,08,11,10,20,21.00
2012,08,11,10,21,21.10
2012,08,11,10,22,21.20
2012,08,11,10,23,21.20
2012,08,11,10,24,21.30
2012,08,11,10,25,21.40
2012,08,11,10,26,21.50
2012,08,11,10,27,21.70
2012,08,11,10,28,21.80
2012,08,11,10,29,21.90
2012,08,11,10,30,22.00
2012,08,11,10,31,22.20
2012,08,11,10,32,22.30
2012,08,11,10,33,22.40
2012,08,11,10,34,22.50
2012,08,11,10,35,22.70
2012,08,11,10,36,22.80
2012,08,11,10,37,22.90
2012,08,11,10,38,23.00
2012,08,11,10,39,23.10
2012,08,11,10,40,23.20
2012,08,11,10,41,23.30
2012,08,11,10,42,23.40
2012,08,11,10,43,23.50
2012,08,11,10,44,23.50
2012,08,11,10,45,23.60
2012,08,11,10,46,23.60
2012,08,11,10,47,23.60
2012,08,11,10,48,23.60
2012,08,11,10,49,23.70
2012,08,11,10,50,23.70
2012,08,11,10,51,23.60
2012,08,11,10,52,23.50
2012,08,11,10,53,23.50
2012,08,11,10,54,23.40
2012,08,11,10,55,23.30
2012,08,11,10,56,23.20
2012,08,11,10,57,23.20
2012,08,11,10,58,23.20
2012,08,11,10,59,23.20
2012,08,11,11,00,23.20
2012,08,11,11,01,23.30
2012,08,11,11,02,23.30
2012,08,11,11,03,23.30
2012,08,11,11,04,23.30
2012,08,11,11,05,23.20
2012,08,11,11,06,23.20
2012,08,11,11,07,23.20
2012,08,11,11,08,23.10
2012,08,11,11,09,23.10
2012,08,11,11,10,23.00
2012,08,11,11,11,23.00
2012,08,11,11,12,23.10
2012,08,11,11,13,23.10
2012,08,11,11,14,23.10
2012,08,11,11,15,23.10
2012,08,11,11,16,23.00
2012,08,11,11,17,23.00
2012,08,11,11,18,23.00
2012,08,11,11,19,23.10
2012,08,11,11,20,23.10
2012,08,11,11,21,23.20
2012,08,11,11,22,23.30
2012,08,11,11,23,23.40
2012,08,11,11,24,23.50
2012,08,11,11,25,23.60
2012,08,11,11,26,23.70
2012,08,11,11,27,23.80
2012,08,11,11,28,23.80
2012,08,11,11,29,23.70
2012,08,11,11,30,23.60
2012,08,11,11,31,23.50
2012,08,11,11,32,23.30
2012,08,11,11,33,23.20
2012,08,11,11,34,23.10
2012,08,11,11,35,23.00
2012,08,11,11,36,22.90
2012,08,11,11,37,22.90
2012,08,11,11,38,22.80
2012,08,11,11,39,22.60
2012,08,11,11,40,22.50
2012,08,11,11,41,22.40
2012,08,11,11,42,22.40
2012,08,11,11,43,22.30
2012,08,11,11,44,22.20
2012,08,11,11,45,22.10
2012,08,11,11,46,22.00
2012,08,11,11,47,21.90
2012,08,11,11,48,21.80
2012,08,11,11,49,21.70
2012,08,11,11,50,21.60
2012,08,11,11,51,21.50
2012,08,11,11,52,21.40
2012,08,11,11,53,21.40
2012,08,11,11,54,21.40
2012,08,11,11,55,21.40
2012,08,11,11,56,21.50
2012,08,11,11,57,21.60
2012,08,11,11,58,21.70
2012,08,11,11,59,21.80
2012,08,11,12,00,21.80
2012,08,11,12,01,21.90
2012,08,11,12,02,22.00
2012,08,11,12,03,22.20
2012,08,11,12,04,22.30
2012,08,11,12,05,22.40
2012,08,11,12,06,22.50
2012,08,11,12,07,22.70
2012,08,11,12,08,22.80
2012,08,11,12,09,22.90
2012,08,11,12,10,23.00
2012,08,11,12,11,23.20
2012,08,11,12,12,23.30
2012,08,11,12,13,23.40
2012,08,11,12,14,23.50
2012,08,11,12,15,23.50
2012,08,11,12,16,23.50
2012,08,11,12,17,23.50
2012,08,11,12,18,23.50
2012,08,11,12,19,23.50
2012,08,11,12,20,23.60
2012,08,11,12,21,23.60
2012,08,11,12,22,23.70
2012,08,11,12,23,23.80
2012,08,11,12,24,23.80
2012,08,11,12,25,23.80
2012,08,11,12,26,23.80
2012,08,11,12,27,23.80
2012,08,11,12,28,23.70
2012,08,11,12,29,23.50
2012,08,11,12,30,23.40
2012,08,11,12,31,23.30
2012,08,11,12,32,23.30
2012,08,11,12,33,23.30
2012,08,11,12,34,23.20
2012,08,11,12,35,23.10
2012,08,11,12,36,23.00
2012,08,11,12,37,22.90
2012,08,11,12,38,22.80
2012,08,11,12,39,22.70
2012,08,11,12,40,22.60
2012,08,11,12,41,22.50
2012,08,11,12,42,22.50
2012,08,11,12,43,22.50
2012,08,11,12,44,22.40
2012,08,11,12,45,22.40
2012,08,11,12,46,22.40
2012,08,11,12,47,22.50
2012,08,11,12,48,22.50
2012,08,11,12,49,22.50
2012,08,11,12,50,22.50
2012,08,11,12,51,22.50
2012,08,11,12,52,22.50
2012,08,11,12,53,22.40
2012,08,11,12,54,22.40
2012,08,11,12,55,22.40
2012,08,11,12,56,22.40
2012,08,11,12,57,22.40
2012,08,11,12,58,22.30
2012,08,11,12,59,22.40
2012,08,11,13,00,22.40
2012,08,11,13,01,22.40
2012,08,11,13,02,22.50
2012,08,11,13,03,22.60
2012,08,11,13,04,22.60
2012,08,11,13,05,22.60
2012,08,11,13,06,22.60
2012,08,11,13,07,22.60
2012,08,11,13,08,22.60
2012,08,11,13,09,22.50
2012,08,11,13,10,22.40
2012,08,11,13,11,22.40
2012,08,11,13,12,22.30
2012,08,11,13,13,22.30
2012,08,11,13,14,22.30
2012,08,11,13,15,22.30
2012,08,11,13,16,22.20
2012,08,11,13,17,22.20
2012,08,11,13,18,22.20
2012,08,11,13,19,22.10
2012,08,11,13,20,22.00
2012,08,11,13,21,22.00
2012,08,11,13,22,22.00
2012,08,11,13,23,22.00
2012,08,11,13,24,22.00
2012,08,11,13,25,22.00
2012,08,11,13,26,22.00
2012,08,11,13,27,22.00
2012,08,11,13,28,22.10
2012,08,11,13,29,22.10
2012,08,11,13,30,22.10
2012,08,11,13,31,22.20
2012,08,11,13,32,22.20
2012,08,11,13,33,22.30
2012,08,11,13,34,22.30
2012,08,11,13,35,22.40
2012,08,11,13,36,22.40
2012,08,11,13,37,22.50
2012,08,11,13,38,22.50
2012,08,11,13,39,22.60
2012,08,11,13,40,22.60
2012,08,11,13,41,22.50
2012,08,11,13,42,22.50
2012,08,11,13,43,22.40
2012,08,11,13,44,22.30
2012,08,11,13,45,22.20
2012,08,11,13,46,22.20
2012,08,11,13,47,22.20
2012,08,11,13,48,22.10
2012,08,11,13,49,22.10
2012,08,11,13,50,22.10
2012,08,11,13,51,22.10
2012,08,11,13,52,22.20
2012,08,11,13,53,22.20
2012,08,11,13,54,22.20
2012,08,11,13,55,22.30
2012,08,11,13,56,22.30
2012,08,11,13,57,22.20
2012,08,11,13,58,22.20
2012,08,11,13,59,22.20
2012,08,11,14,00,22.20
2012,08,11,14,01,22.20
2012,08,11,14,02,22.20
2012,08,11,14,03,22.20
2012,08,11,14,04,22.20
2012,08,11,14,05,22.20
2012,08,11,14,06,22.20
2012,08,11,14,07,22.20
2012,08,11,14,08,22.30
2012,08,11,14,09,22.30
2012,08,11,14,10,22.40
2012,08,11,14,11,22.40
2012,08,11,14,12,22.50
2012,08,11,14,13,22.60
2012,08,11,14,14,22.60
2012,08,11,14,15,22.70
2012,08,11,14,16,22.80
2012,08,11,14,17,22.80
2012,08,11,14,18,22.90
2012,08,11,14,19,22.90
2012,08,11,14,20,22.90
2012,08,11,14,21,22.90
2012,08,11,14,22,22.90
2012,08,11,14,23,23.00
2012,08,11,14,24,23.00
2012,08,11,14,25,23.10
2012,08,11,14,26,23.10
2012,08,11,14,27,23.10
2012,08,11,14,28,23.10
2012,08,11,14,29,23.10
2012,08,11,14,30,23.10
2012,08,11,14,31,23.10
2012,08,11,14,32,23.10
2012,08,11,14,33,23.10
2012,08,11,14,34,23.10
2012,08,11,14,35,23.20
2012,08,11,14,36,23.20
2012,08,11,14,37,23.20
2012,08,11,14,38,23.20
2012,08,11,14,39,23.20
2012,08,11,14,40,23.20
2012,08,11,14,41,23.20
2012,08,11,14,42,23.20
2012,08,11,14,43,23.20
2012,08,11,14,44,23.10
2012,08,11,14,45,23.10
2012,08,11,14,46,23.10
2012,08,11,14,47,23.20
2012,08,11,14,48,23.20
2012,08,11,14,49,23.30
2012,08,11,14,50,23.40
2012,08,11,14,51,23.40
2012,08,11,14,52,23.50
2012,08,11,14,53,23.50
2012,08,11,14,54,23.50
2012,08,11,14,55,23.60
2012,08,11,14,56,23.60
2012,08,11,14,57,23.60
2012,08,11,14,58,23.70
2012,08,11,14,59,23.70
2012,08,11,15,00,23.80
2012,08,11,15,01,23.80
2012,08,11,15,02,23.80
2012,08,11,15,03,23.80
2012,08,11,15,04,23.80
2012,08,11,15,05,23.80
2012,08,11,15,06,23.80
2012,08,11,15,07,23.80
2012,08,11,15,08,23.80
2012,08,11,15,09,23.80
2012,08,11,15,10,23.80
2012,08,11,15,11,23.90
2012,08,11,15,12,23.90
2012,08,11,15,13,24.00
2012,08,11,15,14,24.10
2012,08,11,15,15,24.10
2012,08,11,15,16,24.20
2012,08,11,15,17,24.20
2012,08,11,15,18,24.20
2012,08,11,15,19,24.30
2012,08,11,15,20,24.40
2012,08,11,15,21,24.40
2012,08,11,15,22,24.50
2012,08,11,15,23,24.50
2012,08,11,15,24,24.60
2012,08,11,15,25,24.60
2012,08,11,15,26,24.70
2012,08,11,15,27,24.80
2012,08,11,15,28,24.80
2012,08,11,15,29,24.80
2012,08,11,15,30,24.90
2012,08,11,15,31,24.90
2012,08,11,15,32,24.90
2012,08,11,15,33,25.00
2012,08,11,15,34,25.10
2012,08,11,15,35,25.10
2012,08,11,15,36,25.20
2012,08,11,15,37,25.20
2012,08,11,15,38,25.20
2012,08,11,15,39,25.30
2012,08,11,15,40,25.30
2012,08,11,15,41,25.20
2012,08,11,15,42,25.20
2012,08,11,15,43,25.10
2012,08,11,15,44,25.10
2012,08,11,15,45,25.00
2012,08,11,15,46,24.90
2012,08,11,15,47,24.90
2012,08,11,15,48,24.90
2012,08,11,15,49,24.90
2012,08,11,15,50,24.90
2012,08,11,15,51,24.80
2012,08,11,15,52,24.80
2012,08,11,15,53,24.60
2012,08,11,15,54,24.50
2012,08,11,15,55,24.40
2012,08,11,15,56,24.30
2012,08,11,15,57,24.20
2012,08,11,15,58,24.20
2012,08,11,15,59,24.20
2012,08,11,16,00,24.10
2012,08,11,16,01,24.10
2012,08,11,16,02,24.10
2012,08,11,16,03,24.10
2012,08,11,16,04,24.10
2012,08,11,16,05,24.00
2012,08,11,16,06,24.00
2012,08,11,16,07,23.90
2012,08,11,16,08,23.80
2012,08,11,16,09,23.80
2012,08,11,16,10,23.80
2012,08,11,16,11,23.80
2012,08,11,16,12,23.80
2012,08,11,16,13,23.80
2012,08,11,16,14,23.80
2012,08,11,16,15,23.80
2012,08,11,16,16,23.80
2012,08,11,16,17,23.80
2012,08,11,16,18,23.80
2012,08,11,16,19,23.80
2012,08,11,16,20,23.80
2012,08,11,16,21,23.70
2012,08,11,16,22,23.70
2012,08,11,16,23,23.80
2012,08,11,16,24,23.80
2012,08,11,16,25,23.80
2012,08,11,16,26,23.80
2012,08,11,16,27,23.80
2012,08,11,16,28,23.90
2012,08,11,16,29,23.90
2012,08,11,16,30,23.90
2012,08,11,16,31,23.90
2012,08,11,16,32,23.90
2012,08,11,16,33,23.80
2012,08,11,16,34,23.80
2012,08,11,16,35,23.80
2012,08,11,16,36,23.80
2012,08,11,16,37,23.90
2012,08,11,16,38,23.90
2012,08,11,16,39,23.90
2012,08,11,16,40,24.00
2012,08,11,16,41,24.10
2012,08,11,16,42,24.10
2012,08,11,16,43,24.20
2012,08,11,16,44,24.30
2012,08,11,16,45,24.30
2012,08,11,16,46,24.40
2012,08,11,16,47,24.40
2012,08,11,16,48,24.40
2012,08,11,16,49,24.40
2012,08,11,16,50,24.40
2012,08,11,16,51,24.50
2012,08,11,16,52,24.50
2012,08,11,16,53,24.60
2012,08,11,16,54,24.60
2012,08,11,16,55,24.50
2012,08,11,16,56,24.50
2012,08,11,16,57,24.50
2012,08,11,16,58,24.40
2012,08,11,16,59,24.40
2012,08,11,17,00,24.40
2012,08,11,17,01,24.40
2012,08,11,17,02,24.40
2012,08,11,17,03,24.50
2012,08,11,17,04,24.50
2012,08,11,17,05,24.50
2012,08,11,17,06,24.60
2012,08,11,17,07,24.60
2012,08,11,17,08,24.60
2012,08,11,17,09,24.60
2012,08,11,17,10,24.60
2012,08,11,17,11,24.60
2012,08,11,17,12,24.60
2012,08,11,17,13,24.70
2012,08,11,17,14,24.70
2012,08,11,17,15,24.70
2012,08,11,17,16,24.70
2012,08,11,17,17,24.70
2012,08,11,17,18,24.60
2012,08,11,17,19,24.60
2012,08,11,17,20,24.50
2012,08,11,17,21,24.50
2012,08,11,17,22,24.40
2012,08,11,17,23,24.40
2012,08,11,17,24,24.30
2012,08,11,17,25,24.30
2012,08,11,17,26,24.30
2012,08,11,17,27,24.20
2012,08,11,17,28,24.20
2012,08,11,17,29,24.10
2012,08,11,17,30,24.10
2012,08,11,17,31,24.10
2012,08,11,17,32,24.10
2012,08,11,17,33,24.10
2012,08,11,17,34,24.00
2012,08,11,17,35,24.00
2012,08,11,17,36,24.00
2012,08,11,17,37,24.00
2012,08,11,17,38,24.00
2012,08,11,17,39,24.00
2012,08,11,17,40,24.00
2012,08,11,17,41,23.90
2012,08,11,17,42,23.90
2012,08,11,17,43,23.80
2012,08,11,17,44,23.80
2012,08,11,17,45,23.80
2012,08,11,17,46,23.80
2012,08,11,17,47,23.70
2012,08,11,17,48,23.70
2012,08,11,17,49,23.60
2012,08,11,17,50,23.60
2012,08,11,17,51,23.50
2012,08,11,17,52,23.50
2012,08,11,17,53,23.50
2012,08,11,17,54,23.40
2012,08,11,17,55,23.40
2012,08,11,17,56,23.30
2012,08,11,17,57,23.20
2012,08,11,17,58,23.10
2012,08,11,17,59,23.00
2012,08,11,18,00,22.90
2012,08,11,18,01,22.80
2012,08,11,18,02,22.70
2012,08,11,18,03,22.60
2012,08,11,18,04,22.40
2012,08,11,18,05,22.30
2012,08,11,18,06,22.20
2012,08,11,18,07,22.20
2012,08,11,18,08,22.10
2012,08,11,18,09,22.00
2012,08,11,18,10,21.90
2012,08,11,18,11,21.90
2012,08,11,18,12,21.80
2012,08,11,18,13,21.80
2012,08,11,18,14,21.80
2012,08,11,18,15,21.80
2012,08,11,18,16,21.80
2012,08,11,18,17,21.80
2012,08,11,18,18,21.80
2012,08,11,18,19,21.90
2012,08,11,18,20,21.90
2012,08,11,18,21,21.90
2012,08,11,18,22,21.90
2012,08,11,18,23,22.00
2012,08,11,18,24,22.00
2012,08,11,18,25,22.10
2012,08,11,18,26,22.10
2012,08,11,18,27,22.20
2012,08,11,18,28,22.20
2012,08,11,18,29,22.30
2012,08,11,18,30,22.40
2012,08,11,18,31,22.40
2012,08,11,18,32,22.50
2012,08,11,18,33,22.50
2012,08,11,18,34,22.60
2012,08,11,18,35,22.60
2012,08,11,18,36,22.70
2012,08,11,18,37,22.70
2012,08,11,18,38,22.80
2012,08,11,18,39,22.80
2012,08,11,18,40,22.80
2012,08,11,18,41,22.80
2012,08,11,18,42,22.90
2012,08,11,18,43,22.90
2012,08,11,18,44,22.90
2012,08,11,18,45,22.90
2012,08,11,18,46,22.90
2012,08,11,18,47,22.90
2012,08,11,18,48,22.90
2012,08,11,18,49,22.90
2012,08,11,18,50,22.90
2012,08,11,18,51,22.90
2012,08,11,18,52,22.90
2012,08,11,18,53,22.90
2012,08,11,18,54,22.90
2012,08,11,18,55,22.90
2012,08,11,18,56,22.80
2012,08,11,18,57,22.80
2012,08,11,18,58,22.80
2012,08,11,18,59,22.80
2012,08,11,19,00,22.80
2012,08,11,19,01,22.70
2012,08,11,19,02,22.70
2012,08,11,19,03,22.70
2012,08,11,19,04,22.70
2012,08,11,19,05,22.70
2012,08,11,19,06,22.70
2012,08,11,19,07,22.70
2012,08,11,19,08,22.70
2012,08,11,19,09,22.70
2012,08,11,19,10,22.70
2012,08,11,19,11,22.70
2012,08,11,19,12,22.70
2012,08,11,19,13,22.70
2012,08,11,19,14,22.70
